Location: San Antonio
(29.4240°N, 98.4930°W)
Time: 08:37:52
(UTC-05:00)

Envisat - Pass Details

Date: 23 June 2024
Orbit: 762 x 764 km, 98.3° (Epoch: 12 July)

Event Time Altitude Azimuth Distance (km) Brightness Sun altitude
Rises 03:47:41 0° 30° (NNE) 3,225 7.5 -28.4°
Reaches altitude 10° 03:50:28 10° 45° (NE) 2,296 6.4 -28.1°
Maximum altitude 03:54:23 22° 96° (E) 1,604 4.9 -27.6°
Enters shadow 03:56:17 18° 127° (SE) 1,792 4.9 -27.4°
